Retour au catalogue

THOR ABLESTAR DEB *

ActifUNKNOWN
NORAD 18651·DEBRIS·🇺🇸 United States

Lancé Jun 29, 1961 depuis Cape Canaveral Space Force Station

Loading…

Prochains Passages (prochaines 24 heures)

TLE

FraisSource: Space-Track

Époque: Sep 9, 2026, 18:18 UTC

1 18651U 61015LW  26252.76303622 -.00000026  00000-0  89110-4 0  9992
2 18651  65.6980  69.3743 0752457 248.8727 117.1809 12.40437459614790

Suivez THOR ABLESTAR DEB * en temps réel avec AllMySat

Download on the App Store